Location: Bailen
(14.1842°N, 120.7958°E)
Time: 03:09:54
(UTC+00:00)

Hubble Space Telescope - Visible Passes

Search period start: 06 March 2026 00:00
Search period end: 16 March 2026 00:00
Orbit: 476 x 479 km, 28.5° (Epoch: 5 March)

Date Brightness Start Highest point End Pass type
(mag) Time Alt. Az. Time Alt. Az. Time Alt. Az.
6 Mar 1.9 11:45:03 10° W 11:47:56 35° NW 11:47:56 35° NW visible
7 Mar 1.6 11:14:30 10° W 11:18:01 38° NNW 11:19:26 27° NNE visible
8 Mar 1.6 10:43:55 10° W 10:47:27 38° NNW 10:50:53 10° NE visible
9 Mar 3.3 11:55:17 10° NW 11:56:20 12° NNW 11:56:20 12° NNW visible
10 Mar 3.0 11:24:40 10° NW 11:26:28 13° NNW 11:27:38 12° N visible
11 Mar 3.1 10:54:02 10° NW 10:55:50 13° NNW 10:57:37 10° NNE visible
12 Mar 3.1 10:23:22 10° NW 10:25:11 13° NNW 10:26:57 10° NNE visible
